Location: Hurstbourne Priors
(51.2000°N, 1.3667°W)
Time: 01:10:53
(UTC+00:00)

FALCON 9 DEB - Pass Details

Date: 09 April 2020
Orbit: 428 x 442 km, 53.0° (Epoch: 03 June)

Event Time Altitude Azimuth Distance (km) Brightness Sun altitude
Rises 21:02:10 0° 250° (WSW) 2,429 7.3 -18.7°
Reaches altitude 10° 21:04:17 10° 250° (WSW) 1,560 6.3 -19.0°
Maximum altitude 21:07:47 87° 163° (SSE) 448 3.0 -19.4°
Enters shadow 21:08:16 65° 77° (ENE) 490 3.1 -19.5°
